Waarnemingen

Advertentie
Mijn weer
Brüssel, België (6451): temperatuur & dauwpunt: 19.01.2020 07:00:00 - 25.01.2020 07:00:00 (CET)Brüssel, België (6451): windsnelheid & windstoten: 19.01.2020 07:00:00 - 25.01.2020 07:00:00 (CET)Brüssel, België (6451): windrichting: 19.01.2020 07:00:00 - 25.01.2020 07:00:00 (CET)Brüssel, België (6451): luchtdruk: 19.01.2020 07:00:00 - 25.01.2020 07:00:00 (CET)Brüssel, België (6451): zicht: 19.01.2020 07:00:00 - 25.01.2020 07:00:00 (CET)
Datum & Tijd tt [°C] td [°C] ff [km/u] ff [kn] fx [km/u] fx [kn] dd ppp [hPa] vv [km]
25.01.2020 07:00:00 0,5 -0,3 5 3 - - WZW 1022,1 3,5
25.01.2020 06:00:00 0,4 -0,6 5 3 11 6 ZZW 1022,2 4,0
25.01.2020 05:00:00 0,2 -1,2 5 3 11 6 WZW 1022,3 4,5
25.01.2020 04:00:00 0,1 -1,4 4 2 - - - 1022,6 4,5
25.01.2020 03:00:00 -0,3 -1,9 2 1 11 6 - 1023,0 5
25.01.2020 02:00:00 -0,1 -1,6 8 4 11 6 Z 1023,3 6
25.01.2020 01:00:00 0,2 -1,3 2 1 - - - 1023,5 6
25.01.2020 00:00:00 0,5 -0,9 5 3 11 6 Z 1023,5 6
24.01.2020 23:00:00 0,7 -0,4 4 2 7 4 ZZO 1023,8 6
24.01.2020 22:00:00 0,7 -0,5 4 2 - - OZO 1024,0 6
24.01.2020 21:00:00 0,8 -0,5 4 2 7 4 - 1024,1 5
24.01.2020 20:00:00 0,8 -0,4 2 1 7 4 - 1023,8 5
24.01.2020 19:00:00 0,8 -0,5 5 3 - - ZZW 1023,5 5
24.01.2020 18:00:00 0,8 -0,3 2 1 11 6 - 1023,3 6
24.01.2020 17:00:00 0,9 -0,2 8 4 14 8 Z 1023,1 5
24.01.2020 16:00:00 1,3 0,3 5 3 - - ZZW 1023,3 4,0
24.01.2020 15:00:00 1,3 0,4 2 1 7 4 - 1023,7 3,5
24.01.2020 14:00:00 1,3 0,4 4 2 11 6 - 1024,2 3,2
24.01.2020 13:00:00 1,4 0,4 5 3 - - WNW 1024,8 3,2
24.01.2020 12:00:00 1,5 0,7 5 3 11 6 Z 1024,8 3,2
24.01.2020 11:00:00 1,5 0,6 5 3 11 6 ZZW 1024,6 3,6
24.01.2020 10:00:00 1,4 0,6 8 4 - - Z 1024,5 3,2
24.01.2020 09:00:00 1,3 0,3 5 3 14 8 WZW 1024,3 5
24.01.2020 08:00:00 1,5 0,6 8 4 14 8 WZW 1024,2 5
24.01.2020 07:00:00 1,6 0,6 8 4 - - Z 1024,2 5
24.01.2020 06:00:00 1,7 0,8 2 1 7 4 - 1024,3 5
24.01.2020 05:00:00 1,8 0,8 2 1 7 4 - 1024,8 5
24.01.2020 04:00:00 1,8 0,7 2 1 - - - 1024,9 6
24.01.2020 03:00:00 1,7 0,8 4 2 11 6 Z 1025,7 4,5
24.01.2020 02:00:00 1,6 0,8 4 2 14 8 ZZW 1026,2 2,5
24.01.2020 01:00:00 1,4 0,9 4 2 - - - 1026,7 0,7
24.01.2020 00:00:00 1,4 1,1 2 1 7 4 - 1026,9 0,5
23.01.2020 23:00:00 1,4 1,0 4 2 11 6 - 1027,1 0,9
23.01.2020 22:00:00 1,4 0,9 4 2 - - - 1027,3 1,0
23.01.2020 21:00:00 1,6 1,1 5 3 11 6 ONO 1027,5 2,0
23.01.2020 20:00:00 1,8 1,1 8 4 14 8 ONO 1027,9 4,0
23.01.2020 19:00:00 2,1 1,2 8 4 - - O 1027,9 4,0
23.01.2020 18:00:00 2,3 1,3 11 6 14 8 ONO 1028,4 4,0
23.01.2020 17:00:00 2,7 1,5 8 4 14 8 O 1028,9 5
23.01.2020 16:00:00 2,9 1,6 8 4 - - O 1029,3 7
23.01.2020 15:00:00 3,1 1,7 5 3 18 10 O 1030,2 10
23.01.2020 14:00:00 3,1 1,6 9 5 22 12 O 1031,0 10
23.01.2020 13:00:00 3,8 1,5 9 5 - - O 1031,8 10
23.01.2020 12:00:00 3,6 1,9 11 6 22 12 ONO 1032,4 8
23.01.2020 11:00:00 2,8 1,4 9 5 14 8 O 1032,9 5
23.01.2020 10:00:00 2,2 1,2 5 3 - - O 1033,2 5
23.01.2020 09:00:00 2,5 1,4 8 4 11 6 OZO 1033,5 4,0
23.01.2020 08:00:00 2,8 1,9 4 2 11 6 - 1033,7 3,0
23.01.2020 07:00:00 3,0 2,2 5 3 - - O 1033,7 3,0
23.01.2020 06:00:00 3,0 2,3 5 3 11 6 O 1033,9 1,2
23.01.2020 05:00:00 3,0 2,6 4 2 11 6 - 1034,4 0,3
23.01.2020 04:00:00 3,0 2,5 5 3 - - ONO 1035,0 0,4
23.01.2020 03:00:00 3,1 2,5 4 2 7 4 - 1035,8 0,4
23.01.2020 02:00:00 3,1 2,8 4 2 11 6 ONO 1036,2 0,3
23.01.2020 01:00:00 3,1 2,7 5 3 - - NO 1036,6 0,3
23.01.2020 00:00:00 3,4 2,6 5 3 11 6 Z 1036,7 1,5
22.01.2020 23:00:00 3,2 2,6 4 2 7 4 - 1037,1 0,7
22.01.2020 22:00:00 3,2 2,5 2 1 - - - 1037,1 1,5
22.01.2020 21:00:00 3,1 2,5 2 1 7 4 - 1037,2 2,0
22.01.2020 20:00:00 3,1 2,5 4 2 11 6 NO 1037,1 2,8
22.01.2020 19:00:00 3,0 2,3 5 3 - - NO 1036,9 2,8
22.01.2020 18:00:00 3,3 2,1 4 2 7 4 NO 1036,7 5
22.01.2020 17:00:00 3,5 1,6 4 2 4 2 - 1036,7 8
22.01.2020 16:00:00 3,7 1,5 2 1 - - - 1036,8 8
22.01.2020 15:00:00 3,6 1,1 0 0 4 2 N 1036,9 7
22.01.2020 14:00:00 3,3 1,4 2 1 4 2 - 1037,1 7
22.01.2020 13:00:00 2,0 0,6 0 0 - - N 1037,7 4,5
22.01.2020 12:00:00 1,2 0,0 2 1 11 6 Z 1038,3 4,0
22.01.2020 11:00:00 -0,2 -1,4 8 4 7 4 Z 1038,1 4,0
22.01.2020 10:00:00 -1,0 -1,8 2 1 - - - 1038,4 2,4
22.01.2020 09:00:00 -1,1 -1,4 4 2 7 4 NNO 1038,2 0,6
22.01.2020 08:00:00 -1,3 -1,4 0 0 0 0 N 1037,5 0,2
22.01.2020 07:00:00 -1,5 -1,5 0 0 - - N 1037,5 0,4
22.01.2020 06:00:00 -1,5 -1,7 8 4 11 6 NO 1038,1 0,4
22.01.2020 05:00:00 -1,2 -1,2 0 0 4 2 N 1038,1 0,4
22.01.2020 04:00:00 -1,1 -1,3 2 1 - - - 1038,6 0,3
22.01.2020 03:00:00 -1,5 -1,9 4 2 4 2 Z 1039,0 0,3
22.01.2020 02:00:00 -2,1 -2,1 0 0 14 8 N 1039,2 0,4
22.01.2020 01:00:00 -1,9 -2,4 9 5 - - N 1039,9 0,3
22.01.2020 00:00:00 -2,1 -2,1 2 1 11 6 - 1039,6 0,3
21.01.2020 23:00:00 -1,8 -1,8 2 1 11 6 - 1040,0 0,3
21.01.2020 22:00:00 -1,3 -1,7 4 2 - - - 1039,9 0,3
21.01.2020 21:00:00 -1,4 -1,4 2 1 7 4 - 1040,5 0,3
21.01.2020 20:00:00 -1,3 -1,6 4 2 11 6 - 1040,5 0,3
21.01.2020 19:00:00 -1,1 -1,4 5 3 - - N 1041,0 0,2
21.01.2020 18:00:00 -1,0 -1,0 4 2 7 4 - 1041,0 0,1
21.01.2020 17:00:00 -0,4 -0,4 2 1 11 6 - 1041,2 0,1
21.01.2020 16:00:00 0,7 -0,1 8 4 - - NNO 1041,5 1,5
21.01.2020 15:00:00 1,5 0,5 4 2 7 4 ZZO 1041,6 3,0
21.01.2020 14:00:00 -0,3 -0,8 0 0 7 4 N 1042,3 0,7
21.01.2020 13:00:00 -1,2 -1,4 0 0 - - N 1043,1 0,3
21.01.2020 12:00:00 -1,7 -2,1 4 2 11 6 - 1043,8 0,2
21.01.2020 11:00:00 -1,9 -2,6 4 2 7 4 - 1043,7 0,2
21.01.2020 10:00:00 -2,4 -2,8 2 1 - - - 1043,4 0,3
21.01.2020 09:00:00 -2,6 -2,6 2 1 7 4 - 1043,3 0,2
21.01.2020 08:00:00 -2,5 -2,5 4 2 4 2 ZZO 1043,2 0,2
21.01.2020 07:00:00 -1,8 -2,0 4 2 - - ZZO 1043,2 0,4
21.01.2020 06:00:00 -1,3 -1,6 4 2 7 4 - 1043,3 0,3
21.01.2020 05:00:00 -0,5 -0,5 4 2 4 2 - 1043,7 0,3
21.01.2020 04:00:00 0,5 0,5 2 1 - - - 1044,2 0,3
21.01.2020 03:00:00 1,0 0,4 2 1 4 2 - 1044,7 5
21.01.2020 02:00:00 1,4 0,6 2 1 14 8 - 1044,9 3,5
21.01.2020 01:00:00 2,1 1,1 9 5 - - ZZO 1045,4 3,5
21.01.2020 00:00:00 2,2 1,7 9 5 18 10 ZO 1046,0 0,5
20.01.2020 23:00:00 2,2 2,1 5 3 11 6 O 1046,0 0,2
20.01.2020 22:00:00 2,2 2,2 2 1 - - - 1046,1 0,2
20.01.2020 21:00:00 3,0 2,8 4 2 4 2 NO 1046,3 0,4
20.01.2020 20:00:00 3,6 2,8 2 1 7 4 O 1046,6 4,9
20.01.2020 19:00:00 3,8 2,9 5 3 - - NO 1046,6 6
20.01.2020 18:00:00 4,0 3,1 4 2 4 2 NO 1046,7 7
20.01.2020 17:00:00 4,4 3,3 2 1 4 2 - 1047,0 10
20.01.2020 16:00:00 4,6 3,0 2 1 - - - 1047,3 10
20.01.2020 15:00:00 4,5 3,3 4 2 7 4 - 1047,6 10
20.01.2020 14:00:00 4,1 2,8 2 1 7 4 - 1048,4 10
20.01.2020 13:00:00 3,4 2,3 2 1 - - - 1048,8 8
20.01.2020 12:00:00 2,9 2,0 8 4 7 4 Z 1049,0 5
20.01.2020 11:00:00 2,1 1,6 4 2 7 4 Z 1049,2 2,0
20.01.2020 10:00:00 1,7 1,3 5 3 - - ZZW 1048,9 0,3
20.01.2020 09:00:00 0,9 0,5 9 5 11 6 Z 1048,5 0,2
20.01.2020 08:00:00 0,7 0,7 2 1 4 2 Z 1048,5 0,2
20.01.2020 07:00:00 1,0 1,0 2 1 - - - 1048,1 0,2
20.01.2020 06:00:00 -0,4 -0,4 0 0 4 2 N 1047,9 0,4
20.01.2020 05:00:00 0,4 -0,2 2 1 7 4 - 1047,7 1,7
20.01.2020 04:00:00 1,7 1,1 4 2 - - WNW 1047,6 7
20.01.2020 03:00:00 0,7 0,1 0 0 4 2 N 1047,8 10
20.01.2020 02:00:00 1,5 0,8 4 2 4 2 - 1047,7 10
20.01.2020 01:00:00 1,4 0,5 2 1 - - NW 1047,9 10
20.01.2020 00:00:00 2,3 0,8 4 2 11 6 NNW 1047,6 10
19.01.2020 23:00:00 2,2 0,6 4 2 11 6 N 1047,2 10
19.01.2020 22:00:00 3,4 0,7 5 3 - - N 1046,7 10
19.01.2020 21:00:00 3,7 0,7 9 5 14 8 N 1046,2 10
19.01.2020 20:00:00 3,9 0,8 8 4 14 8 N 1045,5 10
19.01.2020 19:00:00 4,6 1,3 9 5 - - N 1044,9 10
19.01.2020 18:00:00 4,9 1,3 11 6 22 12 N 1044,2 10
19.01.2020 17:00:00 5,5 1,4 16 9 36 19 NNO 1043,0 10
19.01.2020 16:00:00 6,0 2,3 13 7 - - NNO 1042,2 10
19.01.2020 15:00:00 7,0 1,8 18 10 32 18 NNO 1041,3 10
19.01.2020 14:00:00 6,3 2,0 22 12 32 18 NNO 1041,1 10
19.01.2020 13:00:00 6,8 2,7 16 9 - - NNO 1040,7 10
19.01.2020 12:00:00 5,5 2,6 11 6 18 10 N 1040,5 10
19.01.2020 11:00:00 3,8 2,3 5 3 18 10 NNW 1039,9 10
19.01.2020 10:00:00 2,5 1,1 9 5 - - NW 1038,9 10
19.01.2020 09:00:00 2,0 0,5 13 7 18 10 NW 1037,7 10
19.01.2020 08:00:00 1,5 0,1 9 5 14 8 WNW 1036,6 10
19.01.2020 07:00:00 1,5 0,0 8 4 - - W 1035,7 10

tt = temperatuur
td = dauwpunt
ff = windsnelheid
fx = windstoten
dd = windrichting
ppp = luchtdruk
vv = zicht

Weerstations in de omgeving